Stündliche Wetter Juan les Pins

Heute, 8 März, Montag

Zeit Temperatur Niederschläge Wind Luftdruck Luftfeuchtigkeit
00:00 +10°C° 0 mm 2 m/S 762 mmHg 75%
01:00 +10°C° 0 mm 2 m/S 761 mmHg 76%
02:00 +9°C° 0 mm 2 m/S 761 mmHg 76%
03:00 +9°C° 0 mm 2 m/S 761 mmHg 76%
04:00 +9°C° 0 mm 2 m/S 760 mmHg 76%
05:00 +9°C° 0 mm 2 m/S 760 mmHg 77%
06:00 +9°C° 0 mm 2 m/S 760 mmHg 77%
07:00 +10°C° 0 mm 2 m/S 760 mmHg 71%
08:00 +13°C° 0 mm 2 m/S 760 mmHg 65%
09:00 +14°C° 0 mm 2 m/S 760 mmHg 59%
10:00 +15°C° 0 mm 2 m/S 760 mmHg 57%
11:00 +14°C° 0 mm 3 m/S 760 mmHg 56%
12:00 +16°C° 0 mm 3 m/S 759 mmHg 54%
13:00 +14°C° 0 mm 3 m/S 759 mmHg 56%
14:00 +14°C° 0 mm 3 m/S 759 mmHg 57%
15:00 +14°C° 0 mm 3 m/S 759 mmHg 59%
16:00 +14°C° 0 mm 2 m/S 759 mmHg 62%
17:00 +13°C° 0 mm 2 m/S 759 mmHg 66%
18:00 +12°C° 0 mm 2 m/S 759 mmHg 69%
19:00 +12°C° 0 mm 2 m/S 759 mmHg 69%
20:00 +12°C° 0 mm 2 m/S 759 mmHg 70%
21:00 +12°C° 0 mm 2 m/S 760 mmHg 70%
22:00 +12°C° 0 mm 2 m/S 760 mmHg 71%
23:00 +12°C° 0 mm 2 m/S 760 mmHg 71%

Morgen, 9 März, Dienstag

Zeit Temperatur Niederschläge Wind Luftdruck Luftfeuchtigkeit
00:00 +12°C° 0 mm 2 m/S 760 mmHg 72%
01:00 +12°C° 0 mm 2 m/S 760 mmHg 72%
02:00 +12°C° 0 mm 2 m/S 759 mmHg 73%
03:00 +12°C° 0 mm 2 m/S 759 mmHg 73%
04:00 +10°C° 0 mm 2 m/S 759 mmHg 73%
05:00 +10°C° 0 mm 2 m/S 759 mmHg 73%
06:00 +10°C° 0 mm 2 m/S 759 mmHg 74%
07:00 +12°C° 0 mm 2 m/S 760 mmHg 69%
08:00 +13°C° 0 mm 2 m/S 760 mmHg 63%
09:00 +14°C° 0 mm 2 m/S 760 mmHg 58%
10:00 +15°C° 0.1 mm 2 m/S 760 mmHg 59%
11:00 +14°C° 0.1 mm 3 m/S 759 mmHg 59%
12:00 +14°C° 0.1 mm 3 m/S 759 mmHg 60%
13:00 +14°C° 0.2 mm 3 m/S 759 mmHg 64%
14:00 +13°C° 0.2 mm 3 m/S 759 mmHg 69%
15:00 +13°C° 0.2 mm 3 m/S 758 mmHg 73%
16:00 +12°C° 0.2 mm 3 m/S 758 mmHg 78%
17:00 +11°C° 0.2 mm 3 m/S 758 mmHg 83%
18:00 +10°C° 0.2 mm 2 m/S 758 mmHg 88%
19:00 +10°C° 0.4 mm 2 m/S 759 mmHg 88%
20:00 +10°C° 0.4 mm 2 m/S 759 mmHg 89%
21:00 +10°C° 0.4 mm 2 m/S 760 mmHg 90%
22:00 +10°C° 0.8 mm 2 m/S 760 mmHg 89%
23:00 +10°C° 0.8 mm 3 m/S 760 mmHg 87%

übermorgen, 10 März, Mittwoch

Zeit Temperatur Niederschläge Wind Luftdruck Luftfeuchtigkeit
00:00 +10°C° 0.8 mm 3 m/S 760 mmHg 86%
01:00 +9°C° 0.4 mm 3 m/S 760 mmHg 84%
02:00 +9°C° 0.4 mm 2 m/S 760 mmHg 82%
03:00 +8°C° 0.4 mm 2 m/S 760 mmHg 80%
04:00 +8°C° 0 mm 2 m/S 761 mmHg 78%
05:00 +8°C° 0 mm 2 m/S 761 mmHg 76%
06:00 +7°C° 0 mm 2 m/S 762 mmHg 74%
07:00 +9°C° 0 mm 2 m/S 762 mmHg 68%
08:00 +12°C° 0 mm 1 m/S 763 mmHg 61%
09:00 +14°C° 0 mm 1 m/S 763 mmHg 55%
10:00 +15°C° 0 mm 2 m/S 763 mmHg 53%
11:00 +15°C° 0 mm 2 m/S 764 mmHg 51%
12:00 +16°C° 0 mm 3 m/S 764 mmHg 50%
13:00 +15°C° 0 mm 4 m/S 764 mmHg 51%
14:00 +15°C° 0 mm 4 m/S 763 mmHg 53%
15:00 +15°C° 0 mm 5 m/S 763 mmHg 54%
16:00 +13°C° 0 mm 5 m/S 764 mmHg 61%
17:00 +12°C° 0 mm 4 m/S 764 mmHg 67%
18:00 +11°C° 0 mm 4 m/S 764 mmHg 74%
19:00 +10°C° 0 mm 4 m/S 764 mmHg 75%
20:00 +10°C° 0 mm 4 m/S 765 mmHg 76%
21:00 +9°C° 0 mm 3 m/S 765 mmHg 77%
22:00 +9°C° 0 mm 3 m/S 766 mmHg 75%
23:00 +9°C° 0 mm 3 m/S 766 mmHg 74%

11 März, Donnerstag

Zeit Temperatur Niederschläge Wind Luftdruck Luftfeuchtigkeit
00:00 +9°C° 0 mm 3 m/S 766 mmHg 72%
01:00 +9°C° 0 mm 2 m/S 766 mmHg 71%
02:00 +8°C° 0 mm 2 m/S 766 mmHg 69%
03:00 +8°C° 0 mm 2 m/S 765 mmHg 68%
04:00 +8°C° 0 mm 2 m/S 765 mmHg 67%
05:00 +8°C° 0 mm 2 m/S 765 mmHg 66%
06:00 +8°C° 0 mm 2 m/S 766 mmHg 65%
07:00 +11°C° 0 mm 1 m/S 766 mmHg 61%
08:00 +12°C° 0 mm 1 m/S 766 mmHg 57%
09:00 +14°C° 0 mm 1 m/S 766 mmHg 53%
10:00 +15°C° 0 mm 2 m/S 766 mmHg 52%
11:00 +16°C° 0 mm 3 m/S 766 mmHg 51%
12:00 +16°C° 0 mm 3 m/S 766 mmHg 50%
13:00 +16°C° 0 mm 3 m/S 765 mmHg 51%
14:00 +16°C° 0 mm 3 m/S 765 mmHg 53%
15:00 +15°C° 0 mm 4 m/S 765 mmHg 54%
16:00 +14°C° 0 mm 4 m/S 765 mmHg 59%
17:00 +13°C° 0 mm 4 m/S 765 mmHg 63%
18:00 +12°C° 0 mm 4 m/S 765 mmHg 67%
19:00 +12°C° 0 mm 4 m/S 765 mmHg 68%
20:00 +11°C° 0 mm 4 m/S 765 mmHg 69%
21:00 +11°C° 0 mm 4 m/S 765 mmHg 69%
22:00 +11°C° 0 mm 4 m/S 764 mmHg 69%
23:00 +11°C° 0 mm 4 m/S 764 mmHg 69%

12 März, Freitag

Zeit Temperatur Niederschläge Wind Luftdruck Luftfeuchtigkeit
00:00 +10°C° 0 mm 5 m/S 763 mmHg 69%
01:00 +10°C° 0 mm 5 m/S 763 mmHg 71%
02:00 +11°C° 0 mm 4 m/S 762 mmHg 73%
03:00 +11°C° 0 mm 4 m/S 762 mmHg 74%
04:00 +10°C° 0 mm 5 m/S 762 mmHg 76%
05:00 +10°C° 0 mm 5 m/S 762 mmHg 77%
06:00 +10°C° 0 mm 6 m/S 762 mmHg 78%
07:00 +13°C° 0 mm 5 m/S 762 mmHg 70%
08:00 +14°C° 0 mm 4 m/S 762 mmHg 62%
09:00 +17°C° 0 mm 3 m/S 762 mmHg 54%
10:00 +18°C° 0 mm 4 m/S 761 mmHg 49%
11:00 +19°C° 0 mm 4 m/S 761 mmHg 44%
12:00 +20°C° 0 mm 5 m/S 761 mmHg 39%
13:00 +20°C° 0 mm 6 m/S 761 mmHg 37%
14:00 +18°C° 0 mm 7 m/S 760 mmHg 36%
15:00 +18°C° 0 mm 7 m/S 760 mmHg 34%
16:00 +17°C° 0 mm 8 m/S 760 mmHg 39%
17:00 +15°C° 0 mm 8 m/S 760 mmHg 45%
18:00 +12°C° 0 mm 8 m/S 760 mmHg 50%
19:00 +11°C° 0 mm 8 m/S 760 mmHg 53%
20:00 +11°C° 0 mm 8 m/S 760 mmHg 55%
21:00 +10°C° 0 mm 8 m/S 760 mmHg 58%
22:00 +9°C° 0 mm 7 m/S 761 mmHg 60%
23:00 +9°C° 0 mm 6 m/S 761 mmHg 62%

13 März, Samstag

Zeit Temperatur Niederschläge Wind Luftdruck Luftfeuchtigkeit
00:00 +8°C° 0 mm 5 m/S 761 mmHg 64%
01:00 +8°C° 0 mm 5 m/S 761 mmHg 63%
02:00 +8°C° 0 mm 5 m/S 761 mmHg 63%
03:00 +7°C° 0 mm 6 m/S 761 mmHg 63%
04:00 +7°C° 0 mm 5 m/S 761 mmHg 62%
05:00 +7°C° 0 mm 5 m/S 761 mmHg 62%
06:00 +7°C° 0 mm 5 m/S 761 mmHg 61%
07:00 +10°C° 0 mm 4 m/S 762 mmHg 54%
08:00 +12°C° 0 mm 3 m/S 762 mmHg 47%
09:00 +14°C° 0 mm 3 m/S 762 mmHg 40%
10:00 +16°C° 0 mm 3 m/S 762 mmHg 38%
11:00 +17°C° 0 mm 3 m/S 762 mmHg 35%
12:00 +18°C° 0 mm 3 m/S 762 mmHg 33%
13:00 +18°C° 0 mm 3 m/S 762 mmHg 36%
14:00 +18°C° 0 mm 3 m/S 762 mmHg 39%
15:00 +18°C° 0 mm 3 m/S 761 mmHg 42%
16:00 +16°C° 0 mm 3 m/S 761 mmHg 47%
17:00 +14°C° 0 mm 3 m/S 762 mmHg 53%
18:00 +13°C° 0 mm 3 m/S 762 mmHg 58%
19:00 +12°C° 0 mm 3 m/S 762 mmHg 60%
20:00 +11°C° 0 mm 3 m/S 763 mmHg 62%
21:00 +11°C° 0 mm 3 m/S 763 mmHg 64%
22:00 +10°C° 0 mm 3 m/S 763 mmHg 63%
23:00 +10°C° 0 mm 3 m/S 763 mmHg 63%
Mehr zeigen

Wir brauchen deine Erlaubnis

Meteoprog und unser Service Anbieter werden persönliche Daten aufbewahren, so wie Cookies, Geräte Bezeichnung oder ähnliche Technologien von deinem Gerät und Prozess, so wie Persönliche Daten Inhalte und Werbungen, genauso wie social Media und den Verkehr zu analysieren.

  • Aufbewahrung und/oder Zugang zu deiner Geräte Informationen.

    Cookies, Geräte Bezeichnung oder andere Informationen, können aufbewahrt oder Zugang zu deinem Gerät erhalten, für den Grund, der oben angegeben wird.

  • Personalisierte Werbung und Inhalte, Messungen, Einblick in das Publikum und Produkt Entwicklung.

    Werbungen und Inhalte können personalisiert werden, basierend auf ein Profil. Mehr Daten können besser personalisierte Werbungen und Inhalte hinzufügen. Werbung und Inhalte können gezeigt und gemessen werden. Einblicke über das Publikum, welche die Werbung gesehen haben und den Inhalt, können abgeleitet werden. So wie Daten können genutzt werden, um es zu verbessern oder die Benutzer Erfahrung zu verbessern das System und die Software.

Wenn du “Ich stimme zu” klickst, erlaubst du uns, die Cookies zu benutzen die Geräte Bezeichnung, den Web oder ähnliche Technologien zu benutzen. Deine Settings, können in deinem Gerät bei deinem Browser geändert werden.

Für den bestimmten Zweck, berechtigten Interessen beruhen darauf, mehr als auf den Inhalt. Du kannst mehr darüber in unseren Privaten und Cookie Politik lesen.